Hourly Data Report for October 16, 2016

All times are specified in Local Standard Time (LST). Add 1 hour to adjust for Daylight Saving Time where and when it is observed.

PETAWAWA AWOS 2
ONTARIO

45°57'00.000" N
77°19'00.000" W
130.10 m
6106396
71625
YWA

Download Data

Hourly Data (October 2016)
Hourly Data Report for October 16, 2016
Temp Definition
°C
Dew Point Temp Definition
°C
Rel Hum Definition
%
Wind Dir Definition
10's deg

Wind Spd Definition
km/h
Visibility Definition
km
Stn Press Definition
kPa
Hmdx Definition


Wind Chill Definition


Weather Definition


TIME
00:00 13.2 9.4 78 14 11 14.5 99.85     LegendNANA
01:00 12.8 9.2 79 12 9 14.5 99.79     LegendNANA
02:00 13.2 9.7 79 14 9 14.5 99.75     LegendNANA
03:00 13.4 10.3 82 14 15 14.5 99.64     LegendNANA
04:00 13.9 11.1 83 12 11 14.5 99.53     LegendNANA
05:00 15.2 12.5 84 10 7 14.5 99.47     LegendNANA
06:00 15.1 12.8 86 13 7 14.5 99.46     LegendNANA
07:00 14.6 13.9 96   0 8.0 99.44     Rain
08:00 15.5 15.5 100 15 6 4.0 99.45     Moderate Rain
09:00 15.8 15.8 100 23 4 8.0 99.45     LegendNANA
10:00 17.1 17.1 100 19 4 9.7 99.39     LegendNANA
11:00 18.7 17.5 93 22 11 14.5 99.37     LegendNANA
12:00 17.9 17.8 99 24 6 2.9 99.36     Rain
13:00 18.3 18.2 99 24 9 5.6 99.33     Rain
14:00 18.7 18.4 98 27 4 14.5 99.34     LegendNANA
15:00 18.8 18.3 97 28 6 14.5 99.35     Rain
16:00 19.4 18.3 93 28 6 14.5 99.35     LegendNANA
17:00 18.3 17.2 93 28 4 14.5 99.40     LegendNANA
18:00 16.9 16.2 96 27 7 14.5 99.47     LegendNANA
19:00 16.0 15.3 96 28 6 14.5 99.53     LegendNANA
20:00 13.4 13.4 100   0 0.3 99.58     LegendNANA
21:00 11.7 11.7 100 29 4 0.3 99.66     LegendNANA
22:00 13.0 13.0 100 34 7 4.0 99.79     LegendNANA
23:00 12.5 10.7 89 34 19 14.5 99.89     LegendNANA

Notes on Data Quality.

Legend

  • E = Estimated
  • M = Missing
  • NA = Not Available
  • ‡ = Partner data that is not subject to review by the National Climate Archives
Date modified: